SBDNSBSP

Guest
Details From SBDN - Presidente Prudente
To SBSP - Sao Paulo Congonhas
Flight Number -
Tags Generated
Created
Modified
Stats Distance 278 nm / 515 km
Max Altitude 0 ft / 0 m
Waypoints 3
Social Downloads 0
Likes 0
Share VATSIM

Download

Looking for another format? Having issues loading an existing format? Contact us
Advertisement - Login to hide

Notes

Generated

Route

SBDN TPV SBSP

ID Type Via Altitude Latitude Longitude Leg Dist Tot Dist Heading (true) Name
O SBDN APT - 0 ft / 0 m -22.17367˚ -51.43475˚ - 0 nm - -
TPV NDB - 0 ft / 0 m -23.56550˚ -46.92267˚ 263 nm 263 nm 109° / 108° ITAPEVI NDB
O SBSP APT - 0 ft / 0 m -23.62070˚ -46.65829˚ 14 nm 278 nm 103° / 103° -

Altitude Profile

Advertisement - Login to hide

Weather


0- 5 10 15 20 25 30 35+ Temperature / ° C

Clouds and Precipitation
Forecast for 2018-05-25 12:00 UTC. Updated 2 hours ago

Ground ~20,000 ft ~40,000 ft Winds

SBDN

Details ICAO SBDN (PPB)
Name Presidente Prudente
Region Brazil
Timezone America/Sao_Paulo (UTC-3.0)
Stats Elevation 1,476 ft / 450 m (AMSL)
Location -22.175042° -51.424639°
Runways 1
Magnetic Variation 19.227° W

METAR

SBDN 251300Z 10009KT CAVOK 22/12 Q1023

Decode

TAF

TAF SBDN 250900Z 2512/2524 11008KT CAVOK TN18/2512Z TX27/2518Z BECMG 2514/2516 9999 FEW040 BECMG 2520/2522 14005KT CAVOK RMK PDW

Decode

Departure Runways

ID Width Length Bearing (true) Bearing (mag) Surface Threshold Offset Overrun Length
12 115 ft / 35 m 6,929 ft / 2,112 m 98.36° 117.59° Asphalt 0 ft / 0 m 0 ft / 0 m
30 115 ft / 35 m 6,929 ft / 2,112 m 278.35° 297.58° Asphalt 0 ft / 0 m 0 ft / 0 m

SBSP

Details ICAO SBSP (CGH)
Name Sao Paulo Congonhas
Region Brazil
Timezone America/Sao_Paulo (UTC-3.0)
Stats Elevation 2,631 ft / 802 m (AMSL)
Location -23.626693° -46.655377°
Runways 2
Magnetic Variation 21.349° W

METAR

SBSP 251300Z 11007KT 070V150 9999 FEW015 BKN019 18/13 Q1027

Decode

TAF

TAF TAF SBSP 251007Z 2512/2612 11005KT 9999 BKN011TX20/2517Z TN15/2609Z BECMG 2513/2515 SCT025 BECMG 2515/2517 15010KT BECMG 2519/2521 BKN010 BECMG 2523/2601 12005KT PROB30 2603/2609 FEW011 RMK PGF

Decode

Destination Runways

ID Width Length Bearing (true) Bearing (mag) Surface Threshold Offset Overrun Length
17L 147 ft / 45 m 4,726 ft / 1,441 m 147.28° 168.63° Asphalt 0 ft / 0 m 220 ft / 67 m
17R 147 ft / 45 m 6,406 ft / 1,953 m 147.39° 168.74° Asphalt 413 ft / 126 m 0 ft / 0 m
35L 147 ft / 45 m 6,406 ft / 1,953 m 327.38° 348.73° Asphalt 200 ft / 61 m 0 ft / 0 m
35R 147 ft / 45 m 4,726 ft / 1,441 m 327.28° 348.63° Asphalt 0 ft / 0 m 0 ft / 0 m

Approach Navaids

Runway Type Ident Frequency Range Bearing (true) Bearing (mag) Slope Elevation
17R Localiser ISP 109.30 MHz 18 nm / 33 km 147.03° 168.38° - 2,631 ft / 802 m (AMSL)
17R Glidescope ISP 109.30 MHz 10 nm / 19 km 147.38° 168.73° 2.90° 2,631 ft / 802 m (AMSL)
35L Localiser ICO 110.10 MHz 18 nm / 33 km 328.14° 349.49° - 2,631 ft / 802 m (AMSL)

Popular Alternatives